Retour au catalogue

STARLINK-34075

ActifCommunicationsVLEO
NORAD 63917·PAYLOAD·🇺🇸 United States

Lancé May 10, 2025 depuis Cape Canaveral Space Force Station

Loading…

Prochains Passages (prochaines 24 heures)

TLE

FraisSource: CelesTrak SupGP

Époque: Sep 15, 2026, 03:33 UTC

1 63917C 25095AD  26258.14840278 -.00027201  00000+0 -98554-3 0  2589
2 63917  43.0020 186.0443 0001370 275.6388 150.0439 15.27581697    17

Suivez STARLINK-34075 en temps réel avec AllMySat

Download on the App Store